OPS 4682 DEB, 38382

Orbit data source: Space-Track

OPS 4682 DEB, 38382 is space debris in LEO originally from a launch on Sat, 03 Apr 1965 UTC launched from the Air Force Western Test Range (AFWTR). Debris objects in space refer to the collection of defunct objects orbiting the Earth. Examples of debris include non-operational satellites, rocket bodies, and fragments generated from explosions, collisions, or faulty payload assembly.

Loading next visibility...
Identifier
38382, 1965-027CK
Orbit
LEO
Country
Flag of USUS
Related business
Manufacturer
Unknown
Mission
Spacecraft
Bus & Motor
Unknown
Mass
Unknown
Launch date (UTC)
1965-04-03 (61 years ago)
Launch vehicle
Unknown
Launch site
Air Force Western Test Range (AFWTR)
Object type
Payload
Rocket body
Debris
Shape & HBR
Unknown shape, 0.1 m
Radar Cross Section
Small (<0.1 m²)

Expand to show TLE details & history
Last TLE update: 3 weeks ago

TLE from 3 weeks ago
0 OPS 4682 DEB
1 38382U 65027CK  26183.96553924  .00000600  00000-0  20582-2 0  9992
2 38382  90.2493   9.3277 0027077 123.7165 236.6542 12.96790133 64479
Epoch: 2026-07-02T23:10Z
TLE epoch observation values (Epoch: 2026-07-02T23:10:22.590Z)
Latitude
0.00003°
Longitude
100.73321°
Altitude
1,289 km
Speed
7.206 km/s
True Right ascension
00h 37m 18s
True Declination
0° 00' 00"
Sunlit
Object was in daylight at epoch
Visualization orbit readout
Latitude
Unknown
Longitude
Unknown
Altitude
Unknown
Speed
Unknown
Apparent Right ascension
Unknown
Apparent Declination
Unknown
Sunlit
N/A
Visualization observer readout
Local Sidereal Time
19:40:49
Azimuth
Unknown
Elevation
Unknown
Doppler factor
Unknown
Orbital elements
Apogee altitude
1,292.535 km
Perigee altitude
1,251.107 km
Semi-major axis
7,649.958 km
Eccentricity
0.00271
Inclination
90.2493°
RAAN
9.3277°
Arg. of periapsis
123.7165°
True anomaly
236.39548°
Mean anomaly
236.6542°
Eccentric anomaly
236.52479°
Mean motion
3.2438 °/min
Orbital period
110.98 mins
BSTAR
0.0020582
Loading maneuver chart data...
Computing Atmospheric mass density...
Loading historical data...
Loading historical data...
Loading historical data...
Loading historical data...
Loading historical data...
Loading historical data...
Loading historical data...

Documentation

Showing up to 5 results
|